Theta_e
340 340 343 350 354 355 354 353 352 352 353 352 352 352 352 351 350 349 347 343 340 340 341 343 344 347 348 349 349 347 349 350 349 349 350 348 346 345 344 342 341 338 345
329 336 344 348 355 355 355 354 353 353 352 351 351 351 350 349 348 347 345 342 342 342 341 344 344 347 347 346 345 348 348 347 348 348 347 347 347 344 342 340 340 340 342
335 342 348 351 355 355 354 354 354 353 352 349 348 348 347 347 346 345 343 344 343 343 345 348 348 348 348 347 344 345 346 346 347 346 345 345 345 346 343 340 339 340 339
331 335 351 355 355 354 355 354 353 353 352 351 347 347 347 348 347 345 344 345 345 346 347 349 349 347 347 344 341 343 345 344 344 345 344 340 345 347 344 340 339 339 339
328 330 338 349 353 351 352 352 352 352 352 351 350 348 348 349 348 346 345 346 347 348 349 349 348 347 346 346 345 343 342 344 344 340 339 343 347 345 342 339 339 338 338
321 324 330 336 338 347 352 351 351 352 351 351 351 351 349 349 349 350 348 349 348 348 349 348 346 345 346 346 347 347 346 343 344 339 342 345 345 343 340 339 337 337 338
315 317 318 326 329 333 339 348 351 351 350 351 351 351 351 350 350 351 352 351 348 349 349 349 346 344 344 345 347 346 343 343 343 344 344 343 341 340 341 339 339 338 338
313 315 316 322 323 324 328 331 334 342 349 351 351 351 351 351 351 352 352 352 350 349 350 349 347 345 343 343 346 346 343 336 339 343 344 343 341 341 340 340 340 339 339
316 317 318 318 320 324 323 324 325 327 330 338 348 350 350 349 350 350 350 351 350 350 350 350 348 346 344 343 344 347 343 335 338 340 341 342 341 341 342 340 341 340 339
317 317 317 318 318 318 317 322 321 322 324 326 334 342 342 343 345 348 348 348 350 350 351 350 350 348 346 345 344 345 341 336 335 338 340 339 339 340 341 341 341 341 340
316 316 317 316 317 317 317 318 323 324 324 324 326 331 335 347 347 347 344 343 347 348 349 349 349 348 345 343 343 342 339 341 337 335 336 339 339 341 341 342 342 342 341
313 315 315 316 316 316 316 318 318 318 320 320 320 321 326 333 344 344 340 338 343 345 346 348 348 347 343 345 343 339 339 335 336 335 334 338 339 341 341 342 345 343 341
313 314 314 315 315 315 316 316 317 318 318 319 320 320 320 323 333 341 346 348 348 339 348 346 346 344 343 343 344 341 335 333 332 333 332 335 335 340 342 342 345 345 342
312 312 313 313 314 314 315 315 315 316 316 317 318 319 319 319 322 328 334 343 345 346 344 345 344 343 342 344 343 342 340 336 331 331 332 331 332 335 339 342 344 346 345
309 311 312 313 313 313 313 314 314 314 314 316 316 318 319 319 319 320 325 333 339 343 345 344 342 343 342 342 342 341 340 339 340 336 332 328 330 332 335 339 343 344 346
308 310 312 312 313 313 313 313 313 314 314 314 316 316 317 317 318 319 319 322 327 335 341 343 340 340 339 340 339 340 341 340 339 340 339 336 329 330 332 334 339 342 345
308 310 310 311 312 313 313 314 314 314 314 314 315 316 316 317 317 318 319 320 321 325 332 336 337 339 337 338 337 339 339 340 340 339 340 340 337 327 330 334 336 340 345
308 309 311 311 312 313 313 313 314 314 314 314 315 315 316 316 317 316 317 319 320 321 322 326 332 336 336 336 335 336 336 336 337 338 341 339 340 338 331 331 335 338 341
308 309 311 312 312 312 313 314 314 315 314 315 315 315 315 315 315 316 317 318 321 321 321 320 321 325 329 332 333 335 337 337 337 337 336 339 339 339 338 332 329 331 334
308 309 311 311 312 312 313 312 314 316 317 317 317 317 317 317 317 316 317 318 320 320 320 320 319 321 322 324 326 328 332 335 336 336 336 336 339 339 339 338 338 331 328
306 308 309 310 311 312 310 309 310 311 315 316 317 318 317 317 317 318 317 318 319 318 319 319 319 319 319 321 322 324 327 331 333 335 335 335 335 337 339 338 338 338 337
305 307 308 309 310 311 311 310 311 310 313 314 316 317 317 318 319 318 320 320 321 319 319 319 319 318 319 321 318 319 317 318 325 332 334 334 334 335 336 336 336 335 333
304 306 307 308 309 310 310 312 311 312 312 311 309 309 312 313 314 315 317 317 320 322 321 321 321 321 317 319 321 318 312 309 317 325 330 331 333 332 332 334 334 331 330
304 306 307 307 308 308 309 309 308 306 304 307 307 309 309 310 310 310 311 312 312 314 315 317 321 321 321 317 320 320 321 319 313 311 319 326 328 329 329 332 332 331 328
304 305 306 306 306 306 307 307 306 305 306 308 308 308 308 309 309 307 308 308 307 310 310 311 312 313 317 318 318 318 318 318 318 315 311 313 321 326 330 332 331 330 328
305 304 306 304 304 305 305 304 304 304 304 304 304 305 306 307 306 306 306 307 306 306 306 307 308 310 311 312 312 314 315 314 313 314 313 313 313 317 323 327 330 331 329
Wind_Speed
3 8 8 7 7 8 7 6 5 5 5 6 6 6 6 6 5 5 5 4 4 3 4 2 2 4 4 7 6 6 7 7 5 8 8 8 8 8 7 5 4 7 5
9 7 5 6 9 8 9 8 6 6 5 5 5 5 5 5 5 5 5 4 4 4 4 4 3 4 4 6 5 6 6 6 6 6 7 7 7 7 6 4 4 7 4
7 9 7 3 8 8 9 8 8 7 6 5 5 5 5 5 4 5 5 5 5 4 3 4 5 6 6 5 5 4 5 5 6 6 3 4 7 7 6 5 4 4 4
10 10 14 3 6 6 6 7 8 8 8 7 5 6 5 5 5 5 5 5 6 5 4 7 7 6 6 5 5 5 5 3 3 4 7 4 6 8 5 4 4 3 3
10 12 16 19 8 2 3 4 5 6 7 8 7 6 6 6 6 6 6 6 5 3 7 6 6 6 6 6 6 6 5 4 3 7 4 4 2 6 5 4 5 4 2
12 12 16 18 18 16 10 3 3 5 6 6 6 8 8 7 7 8 7 6 5 5 7 8 7 6 6 7 8 6 5 6 6 7 5 5 6 7 3 3 2 2 3
11 10 12 17 17 16 16 14 11 6 5 6 7 8 9 10 10 10 8 7 7 7 10 10 8 8 8 9 8 8 6 5 9 6 6 5 5 2 4 5 5 5 5
10 10 11 12 15 15 15 16 15 13 11 8 8 9 10 10 10 10 9 8 10 10 11 11 10 10 10 10 10 9 7 6 8 9 7 6 3 5 7 7 7 7 6
10 10 10 11 11 9 11 16 15 14 13 12 10 9 9 9 10 11 10 10 11 12 12 12 12 11 11 11 12 10 8 8 10 7 8 6 8 8 9 9 9 8 8
10 10 11 10 10 10 9 13 12 12 13 12 10 9 8 8 9 11 11 12 11 12 12 12 12 13 13 12 11 10 10 9 11 9 8 7 6 9 11 11 11 11 11
7 10 9 10 10 10 9 7 7 7 9 8 7 7 9 8 10 12 11 9 10 11 12 13 13 13 12 11 11 11 10 9 11 8 7 7 10 13 13 13 13 13 13
9 9 9 9 10 10 7 9 8 7 6 6 7 7 6 7 8 10 10 6 10 11 11 13 14 13 11 10 9 11 9 12 10 10 8 8 12 15 15 15 13 15 14
6 7 9 9 9 9 8 7 5 5 5 5 7 7 7 7 6 5 5 6 8 11 10 12 12 11 14 10 9 9 11 12 8 8 11 9 14 17 17 17 15 16 16
7 7 8 9 9 9 7 6 7 6 6 6 6 9 6 5 7 7 5 6 6 7 9 8 8 11 12 13 13 13 13 11 9 8 10 12 15 19 19 19 18 17 18
6 7 9 9 9 9 9 7 8 8 7 8 9 8 7 8 8 8 8 7 6 7 8 7 7 9 11 13 13 14 14 14 15 10 8 12 15 19 21 21 21 21 20
6 8 9 10 9 9 8 9 8 8 9 8 8 9 10 9 9 9 9 9 9 8 8 8 6 7 7 9 12 14 16 14 14 15 11 11 16 18 21 22 23 23 23
6 8 9 9 9 9 9 9 8 7 8 8 8 10 10 10 11 12 10 10 10 9 11 10 10 8 7 8 11 11 13 16 15 16 13 12 11 18 19 23 24 24 23
7 9 9 8 9 10 9 8 7 7 7 8 8 8 10 11 11 11 10 10 10 9 9 9 9 9 7 8 8 9 9 10 14 15 15 13 12 12 15 22 23 24 25
7 8 8 8 9 10 10 8 9 9 7 7 7 7 9 10 11 9 9 9 11 9 9 9 10 10 10 7 8 9 11 12 14 11 15 16 17 14 11 14 22 24 25
6 6 7 7 8 9 7 8 8 7 6 6 6 7 11 9 10 8 8 9 9 8 9 9 11 11 11 11 11 11 11 10 11 11 13 12 15 16 16 17 12 14 23
4 6 6 7 8 7 7 7 7 8 8 8 8 11 11 10 9 8 6 8 8 8 10 10 10 11 10 10 11 11 12 14 15 13 11 11 13 15 17 14 11 10 10
5 6 6 7 8 7 6 6 5 7 6 7 9 11 11 12 11 9 8 7 7 6 8 9 10 9 9 9 10 10 12 12 12 13 13 13 17 13 16 16 16 15 11
4 6 6 7 7 7 8 5 6 5 6 6 8 8 10 12 12 12 12 11 11 9 7 9 9 11 9 9 11 8 7 9 9 9 7 9 11 8 7 11 15 13 13
4 5 6 6 7 7 8 7 9 7 7 7 6 6 7 10 10 12 11 10 9 7 9 9 9 10 10 10 8 9 12 12 11 11 9 8 7 9 11 10 10 12 13
2 4 5 5 6 7 7 7 5 6 5 6 6 10 8 8 9 10 11 10 9 7 8 9 11 11 10 10 9 9 11 11 12 12 12 11 10 10 10 10 10 9 14
3 2 2 3 4 5 6 7 7 7 7 6 8 7 8 7 7 10 11 10 10 9 10 9 10 10 9 9 8 10 11 11 11 12 13 13 14 12 10 11 11 10 9
Wind_Direction
13 339 343 324 184 176 164 159 154 149 140 139 141 141 143 142 142 144 149 150 151 163 170 154 110 64 109 124 121 116 104 83 80 106 100 109 113 107 104 104 208 105 73
311 322 317 297 187 179 177 170 162 157 154 156 157 156 159 161 160 161 164 163 165 156 170 181 168 100 119 124 130 123 108 102 104 109 116 118 115 121 114 101 348 92 98
355 2 338 210 188 182 184 182 171 172 171 170 169 168 168 172 175 176 179 178 176 174 162 197 128 123 116 129 135 143 136 120 117 122 184 201 145 146 128 122 113 120 119
25 15 14 129 179 184 188 192 187 183 186 177 179 181 184 188 190 190 192 199 195 196 171 135 136 135 139 142 151 158 163 157 143 170 211 202 145 144 134 142 145 138 129
44 42 27 30 27 130 182 196 204 198 204 200 187 195 197 197 202 203 206 215 230 233 200 168 162 162 165 171 172 167 182 188 189 233 216 205 136 146 142 159 169 164 223
42 37 36 32 32 33 16 331 250 231 225 236 220 206 210 215 221 219 214 216 224 231 207 188 189 191 193 197 198 188 193 191 212 225 218 135 272 96 170 170 161 167 188
41 34 38 30 29 26 29 24 7 324 266 250 244 242 227 224 228 230 220 217 222 227 208 197 203 209 210 216 214 200 200 210 236 220 229 236 234 184 206 205 209 204 202
40 32 29 34 23 23 26 22 18 15 2 315 268 253 250 241 237 238 235 231 221 221 215 216 211 215 217 219 223 211 205 226 222 247 236 240 138 227 224 212 216 219 217
41 34 27 22 15 18 40 19 13 6 5 360 342 312 272 254 245 245 247 236 235 230 226 224 222 219 223 225 226 222 208 218 255 234 239 240 168 226 236 222 222 225 223
42 30 22 17 12 7 358 31 2 5 359 353 349 336 317 293 250 246 242 231 235 237 234 231 230 227 222 223 225 229 218 221 244 249 237 237 166 231 241 229 226 229 228
33 25 15 10 4 357 349 357 335 356 338 334 341 349 314 280 268 242 233 250 222 236 238 238 234 231 227 224 227 222 223 236 234 238 241 201 209 228 234 241 227 232 233
13 9 5 359 354 346 338 338 332 333 329 329 326 326 314 305 285 311 307 268 249 241 241 246 241 232 224 245 217 216 233 236 242 244 243 190 220 232 233 237 234 228 235
356 354 355 350 343 338 333 325 317 317 312 310 310 313 303 290 276 278 276 272 255 227 247 232 228 231 237 237 242 239 231 236 240 241 247 198 231 234 236 238 240 226 228
348 348 347 347 338 334 327 316 312 306 311 294 297 297 292 286 279 270 259 270 261 259 262 258 264 251 244 241 238 244 244 240 245 245 245 194 225 240 241 239 238 236 227
343 341 346 340 336 333 325 321 313 307 300 302 293 288 286 279 275 275 268 256 247 252 251 261 266 258 256 260 257 247 249 248 247 248 251 196 213 234 236 242 242 240 235
338 341 340 341 338 333 326 321 313 309 308 300 297 292 293 283 278 275 271 266 267 255 261 250 239 247 250 247 247 251 260 254 252 252 254 250 202 224 235 235 240 243 241
340 337 345 339 340 335 330 326 315 309 305 300 299 296 292 286 279 274 275 274 268 263 260 255 250 240 244 251 244 251 251 252 259 254 249 251 244 211 227 236 236 238 241
338 344 343 345 340 344 340 330 320 316 307 301 301 302 299 293 286 279 273 269 267 267 265 266 262 262 250 241 243 244 243 247 248 254 264 255 244 249 215 226 233 234 235
343 344 348 348 348 348 348 339 330 326 319 320 314 311 314 303 288 281 274 273 276 272 268 265 266 260 260 255 256 250 253 250 248 243 247 256 253 249 251 229 217 230 234
343 344 351 356 353 355 1 341 334 332 341 334 330 331 325 315 305 290 281 276 273 270 267 265 264 266 270 271 272 270 262 256 252 244 248 245 254 254 248 247 243 228 228
336 343 351 351 354 358 3 348 340 337 331 340 345 339 337 333 325 310 291 286 279 270 270 272 275 273 269 266 266 267 263 255 251 246 242 240 244 247 255 246 246 245 238
343 356 353 356 355 0 359 342 332 320 324 336 349 347 353 350 348 330 324 310 302 292 279 271 272 274 273 273 272 283 279 270 250 242 242 238 242 245 251 248 245 248 245
358 1 352 354 351 356 353 346 346 346 334 354 352 346 347 1 1 5 5 356 344 331 308 300 290 279 275 270 262 262 282 270 303 302 283 264 258 255 259 257 249 244 242
0 352 352 347 353 1 356 354 357 357 348 344 338 340 350 0 5 10 1 1 355 347 345 330 314 300 286 274 273 260 266 279 281 281 274 282 267 269 250 253 249 247 235
334 358 352 356 9 6 6 7 358 355 341 330 340 339 348 355 11 6 359 359 358 352 345 336 331 330 323 308 287 283 276 274 273 271 277 276 261 252 247 254 237 235 234
206 266 323 358 15 12 14 17 13 3 351 350 353 352 352 355 3 7 360 360 355 349 343 338 329 318 311 307 305 303 293 287 284 286 285 282 280 277 280 258 250 246 239